Regional Weather Roundup
Issued by NWS

Home | Current Version | Previous Version | Text Only | Print | Product List | Glossary Off
Versions: 1 2 3 4 5 6 7 8 9 10 11 12 13 14 15 16 17 18 19 20 21 22 23 24 25 26 27

000
ASUS45 KTFX 161410
RWRMT
MONTANA REGIONAL WEATHER ROUNDUP
NATIONAL WEATHER SERVICE GREAT FALLS MT
700 AM MST SAT DEC 16 2017

NOTE: "FAIR" INDICATES FEW OR NO CLOUDS BELOW 12000 FEET WITH NO
SIGNIFICANT WEATHER AND/OR OBSTRUCTIONS TO VISIBILITY.

MTZ001>007-043-161500-
WEST OF THE DIVIDE

CITY           SKY/WX    TMP DP  RH WIND       PRES   REMARKS
KALISPELL      CLOUDY    26  26 100 SW3       30.04R
MISSOULA       CLOUDY    29  28  96 E3        30.03R FOG
BUTTE          LGT SNOW  27  23  85 NW6       29.90R FOG     WCI  20
MULLAN PASS    CLOUDY    18  14  84 NW5       29.94R FOG
ANACONDA         N/A     27  27 100 NE7       29.93S WCI  19
DEER LODGE       N/A     28  25  86 NW17      29.95R WCI  16
EUREKA           N/A     25  21  86 MISG      30.08R
HAMILTON         N/A     28  27  93 CALM      30.02R
LIBBY            N/A     27  27 100 CALM      30.08R
PLAINS           N/A     27  23  84 CALM      30.08
RONAN            N/A     28  26  92 CALM      30.07R
$$

MTZ008-052>055-161500-
SOUTHWEST MONTANA

CITY           SKY/WX    TMP DP  RH WIND       PRES   REMARKS
BOZEMAN        LGT SNOW  29  28  96 SW3       29.91R FOG
DILLON         LGT SNOW  26  23  88 W3        29.89R FOG
W YELLOWSTONE  CLOUDY    23  21  93 SW8       29.84S FOG     WCI  14
ENNIS          LGT SNOW  28  28 100 S3        29.92R
THREE FORKS      N/A     28  27  96 CALM      29.91R
TWIN BRIDGES     N/A     28  23  81 CALM      29.90
$$

MTZ009-010-012-014-046-048-049-054-161500-
EAST SLOPES AND CENTRAL MONTANA

CITY           SKY/WX    TMP DP  RH WIND       PRES   REMARKS
CUT BANK       LGT SNOW  28  27  96 E9        29.94R VSB 3/4 WCI  19
GREAT FALLS    FLURRIES  30  27  88 E7        29.94R WCI  23
MALMSTROM AFB  FLURRIES  29  29  99 E3        29.95R
HELENA         FOG       28  28 100 CALM      29.93S VSB 1/2
BOWMANS CRNR   MOCLDY    26  26  99 NE3       29.89R
CHOTEAU          N/A     27  27 100 S5        29.94R
FAIRFIELD      CLOUDY    28  26  91 CALM      29.92R
POWER          LGT SNOW  28  27  96 SE6       29.93R WCI  21
RAYNESFORD     LGT SNOW  29  27  92 CALM      29.93R
ULM            LGT RAIN  29  29  99 CALM      29.94R
$$

MTZ011-013-016-021-045-047-050-051-161500-
NORTH CENTRAL MONTANA

CITY           SKY/WX    TMP DP  RH WIND       PRES   REMARKS
HAVRE          CLOUDY    29  28  96 MISG      29.97R
LEWISTOWN      LGT SNOW  30  30 100 CALM      29.93R FOG
N BAR RANCH    CLOUDY    30  21  69 NE6       29.93R WCI  24
CHINOOK          N/A     28  28 100 CALM      29.98R
DENTON         CLOUDY    29  26  88 W7        29.91R WCI  22
GEYSER         FLURRIES  28  27  96 CALM      29.93R
GRASS RANGE    MOCLDY    31  24  75 CALM      29.90R
STANFORD       LGT SNOW  26  26  99 N7        29.93R FOG     WCI  19
WINIFRED       MOCLDY    28  27  96 W3        29.93R
$$

MTZ017>020-022>027-061-062-161500-
NORTHEAST MONTANA

CITY           SKY/WX    TMP DP  RH WIND       PRES   REMARKS
GLASGOW        FAIR      23  21  92 W7        29.94R WCI  15
GLENDIVE       FAIR      29  25  85 NW16      29.90R WCI  17
JORDAN           N/A     28  25  88 NW6       29.93R WCI  22
SIDNEY         FAIR      27  23  85 NW15      29.89R WCI  15
WOLF POINT     FAIR      24  20  84 SW9       29.93R WCI  14
MALTA          CLOUDY    30  28  93 W9        29.95R WCI  22
PLENTYWOOD       N/A     25  19  80 CALM      29.86R
POPLAR           N/A     25  19  80 W3        29.92R
SCOBEY           N/A     20  11  68 W3        29.87
$$

MTZ028>42-056>058-161500-
SOUTHCENTRAL AND SOUTHEAST MONTANA

CITY           SKY/WX    TMP DP  RH WIND       PRES   REMARKS
BAKER          FAIR      29  28  96 W10       29.89R WCI  20
BILLINGS       LGT SNOW  30  30 100 NE9       29.92R FOG     WCI  22
LIVINGSTON     LGT SNOW  32  32 100 E7        29.88R VSB 1   WCI  26
MILES CITY     CLOUDY    30  27  88 W6        29.93R WCI  24
BIG TIMBER     FOG       30  30 100 N5        29.91R VSB 3/4
EKALAKA          N/A     27  23  84 W6        29.88R WCI  21
FORSYTH          N/A     34  30  86 CALM      29.94R
LAUREL           N/A     32  30  93 NE9       29.93R FOG     WCI  24
ROUNDUP          N/A     30  25  82 CALM      29.86R
$$

REGIONAL REPORTS...DAKOTAS

CITY           SKY/WX    TMP DP  RH WIND       PRES   REMARKS
WILLISTON      CLOUDY    28  18  64 W6        29.88R WCI  22
MINOT          CLOUDY    37  31  78 W13       29.79R WCI  29
DICKINSON      FAIR      28  25  88 W9        29.83R WCI  19
BEACH          FAIR      27  27 100 NW10G17   29.90R WCI  17
CROSBY         FAIR      28  27  93 NW12      29.83R WCI  18
TIOGA          CLOUDY    30  30 100 NW14      29.83R WCI  20
WATFORD CITY   CLOUDY    30  27  86 W10       29.86R WCI  21
BISMARCK       FAIR      35  32  88 NW9       29.83R WCI  28
GRAND FORKS    CLOUDY    21  18  88 E3        29.79R
FARGO          CLOUDY    27  24  89 S3        29.79R
BUFFALO SD       N/A     33  28  81 NW16      29.82R WCI  23
RAPID CITY     FAIR      34  25  69 N15       29.87R WCI  24
$$

REGIONAL REPORTS...WYOMING/IDAHO/WASHINGTON

CITY           SKY/WX    TMP DP  RH WIND       PRES   REMARKS
GILLETTE       CLOUDY    30  23  75 CALM      29.88R
SHERIDAN       LGT SNOW  32  32 100 N3        29.91R FOG
BUFFALO WY     LGT SNOW  32  28  85 N5        29.89R VSB 1
CODY           LGT SNOW  31  28  89 CALM      29.87R FOG
YELLOWSTONE LA   N/A     20  18  92 CALM      29.83F
IDAHO FALLS    LGT SNOW  24  23  96 SW6       29.94R FOG     WCI  17
SALMON         FLURRIES  22  20  92 CALM      30.01R
BOISE          CLOUDY    24  22  91 W8        30.09S WCI  15
SPOKANE        FOG       25  25 100 W6        30.16R VSB 1/2 WCI  18
$$

REGIONAL REPORTS...ALBERTA

CITY           SKY/WX    TMP DP  RH WIND       PRES   REMARKS
EDMONTON       CLEAR     28  14  54 W13       29.85R WCI  18
CALGARY        PTCLDY    28   9  43 SW7       29.93R WCI  21
LETHBRIDGE     FLURRIES  30  27  86 S3        29.96R
MEDICINE HAT   CLOUDY    28  21  74 W3        29.96R
$$

REGIONAL REPORTS...SASKATCHEWAN

CITY           SKY/WX    TMP DP  RH WIND       PRES   REMARKS
SWIFT CURRENT  CLEAR     19  14  79 W13G18    29.85S WCI   7
REGINA         PTCLDY    25  21  86 W13       29.80R WCI  13
SASKATOON      CLEAR     23  18  80 W12       29.76R WCI  12
$$




USA.gov is the U.S. government's official web portal to all federal, state and local government web resources and services.